STARLINK-11413, 62593

Orbit data source: Space-Track

STARLINK-11413, 62593 is a payload satellite owned by SpaceX/Seattle (US) in LEO that was launched on Mon, 13 Jan 2025 UTC via an FALCON 9 launch vehicle from the Air Force Eastern Test Range (AFETR). Payload-class satellites include a variety of spacecraft equipped with specific instruments for various scientific and technological missions. These include communications satellites like Starlink; space stations such as the ISS; scientific satellites like the Hubble; Earth observation satellites from companies like Planet Labs, Umbra, and HawkEye 360; GPS; miniature CubeSats for education and research; and military/defense satellites.

Loading next visibility...
Identifier
62593, 2025-008G
Orbit
LEO
Last TLE update
17 hours ago
Origin
Manufacturer
SpaceX/Seattle
Mission
Operational Commercial Communications
Bus & Motor
STARLINK V2M, Unknown motor
Mass
730 kg wet, ~700 kg dry
Launch date (UTC)
2025-01-13 (4 months ago)
Launch vehicle
FALCON 9
Launch site
Air Force Eastern Test Range (AFETR)
Object type
Payload
Rocket body
Debris
Shape & HBR
Box + 2 Pan, 29 m
Radar Cross Section
36.964 m², Large (>1 m²)

Expand to show TLE details & history

TLE from 17 hours ago
0 STARLINK-11413
1 62593U 25008G   25128.57046729  .00000359  00000-0  62981-5 0  9996
2 62593  43.0025 165.6160 0001674 266.4035  93.6641 15.70831649 19193
Epoch: 2025-05-08T13:41Z
Definitive object data (Epoch: 2025-05-08T13:41:28.373Z)
Latitude
-0.00005°
Longitude
93.60866°
Altitude
356.363 km
Speed
7.697 km/s
True Right ascension
11h 02m 27s
True Declination
0° 00' 00"
Sunlit
Object was in full shadow at TLE epoch
Visualization TLE readout
Latitude
-24.75006°
Longitude
59.98841°
Altitude
361.853 km
Speed
7.693 km/s
Apparent Right ascension
06h 05m 36s
Apparent Declination
-42° 31' 03"
Sunlit
Object is in daylight
Visualization observer readout
Local Sidereal Time
14:27:51
Azimuth
247.916° W
Elevation
-49.68°
Doppler factor
1
Orbital elements
Apogee altitude
359.628 km
Perigee altitude
357.372 km
Semi-major axis
6,736.637 km
Eccentricity
0.0001674
Inclination
43.0025°
RAAN
165.616°
Arg. of periapsis
266.4035°
True anomaly
93.68324°
Mean anomaly
93.6641°
Eccentric anomaly
93.67367°
Mean motion
3.92535 °/min
BSTAR
0.0000062981
Orbital period
91.71 mins
Loading maneuver chart data...
Loading SW <> Apogee altitude chart data...
Loading historical data...
Loading historical data...
Loading historical data...
Loading historical data...
Loading historical data...
Loading historical data...
Loading historical data...

STARLINK-11413 Visibility forecast

Observer location: undefined°, undefined°

Span
Click to sort rows by Start time (UTC) header in descending order
Start Az.
Max El. time (UTC)
Max El. Az.
Max El.
End time (UTC)
End Az.
5 mins2025-05-09 06:44:02.918Z248.595° W2025-05-09 06:46:02.918Z229.027° WSW44.309°2025-05-09 06:49:02.918Z72.472° E
4 mins2025-05-09 08:21:02.918Z297.88° NW2025-05-09 08:22:02.918Z330.961° NNW32.725°2025-05-09 08:25:02.918Z70.568° E
4 mins2025-05-09 09:57:02.918Z294.177° NW2025-05-09 09:59:02.918Z58.515° ENE41.997°2025-05-09 10:01:02.918Z98.55° ESE
4 mins2025-05-10 05:36:02.918Z216.856° SW2025-05-10 05:38:02.918Z133.423° SE33.023°2025-05-10 05:40:02.918Z84.29° E
|